Lid_Strength_Index
2 2 2 2 3 3 3 3 3 3 4 4 4 3 3 3 4 6 9 7 9 12 11 10 10 12 13 14 17 13 14 15 17 21 20 21 18 15 15 14 14 14 17 20 17 20 18 7 8 12 10 7 7 7
3 3 2 2 2 2 3 3 3 3 4 4 4 4 4 4 4 6 10 8 7 11 11 9 9 8 9 9 12 14 14 14 15 18 19 18 18 18 15 17 11 17 13 15 13 13 8 7 7 6 6 7 7 7
3 3 3 3 3 2 2 2 2 3 3 3 4 4 3 3 3 5 9 9 10 14 12 11 11 8 7 7 7 12 11 9 11 12 16 17 16 15 18 15 13 11 8 12 11 9 8 7 6 5 5 6 5 5
2 3 3 3 3 3 3 3 3 3 3 3 3 3 3 3 4 5 8 8 10 12 15 12 6 8 6 6 6 7 7 7 8 10 12 14 14 10 13 11 12 11 10 11 10 9 8 7 6 5 5 5 5 5
2 2 2 2 2 2 2 3 3 3 3 3 3 3 2 3 3 5 7 7 6 10 14 13 8 6 5 5 6 6 7 9 10 11 12 10 10 10 11 11 11 9 10 12 12 8 9 8 6 5 6 6 5 5
1 1 1 2 2 2 2 2 2 2 2 2 2 2 2 2 4 8 11 6 5 7 12 16 9 8 6 6 6 7 7 8 8 9 11 9 8 10 14 13 9 7 7 7 8 6 7 6 5 5 5 5 5 5
1 1 1 1 1 1 1 1 1 1 1 1 1 1 2 3 7 9 9 7 3 6 13 15 14 8 6 6 7 8 7 8 8 9 10 10 10 10 13 13 9 8 7 7 6 6 7 6 8 5 5 5 4 5
1 1 1 1 1 1 1 1 1 2 2 2 2 2 2 2 3 7 5 3 4 8 9 14 14 11 6 11 11 8 9 9 9 10 10 11 10 10 12 9 8 8 7 6 6 6 6 6 6 6 6 6 6 7
1 1 1 1 1 1 1 1 1 1 2 2 2 2 6 7 9 7 2 2 5 8 14 13 15 18 7 9 9 9 9 15 9 12 10 10 10 12 10 9 8 7 7 7 6 6 7 7 7 7 7 7 7 7
0 0 0 1 1 1 1 1 1 1 2 2 4 9 12 7 1 3 7 11 12 10 11 14 11 15 10 11 14 13 11 11 13 11 10 12 12 9 8 8 7 7 7 7 9 10 10 9 8 7 8 8 8 7
0 0 0 0 1 1 1 1 1 1 1 4 6 7 6 2 6 7 10 13 13 13 12 11 11 12 9 13 13 11 13 11 13 12 12 12 13 9 6 6 6 7 6 6 6 6 6 8 9 9 9 8 7 7
0 0 0 0 0 0 0 0 1 4 5 5 5 3 5 7 11 12 16 11 11 12 12 12 9 9 9 8 12 11 12 11 13 9 13 15 12 7 6 9 7 7 7 7 8 9 9 9 9 9 8 8 9 9
0 -0 -0 -0 0 0 1 1 1 1 2 4 7 10 12 12 14 15 18 13 14 10 10 10 11 8 8 8 9 13 15 15 12 19 16 12 8 7 6 6 7 7 8 9 9 9 9 9 9 9 9 10 10 9
0 0 -1 -0 -0 0 0 1 1 2 6 10 12 18 15 16 13 11 10 11 9 9 11 10 8 9 9 10 10 13 12 12 18 20 14 11 8 7 8 9 9 10 9 9 9 9 9 9 10 10 10 10 9 10
0 -0 0 0 -0 -0 0 1 1 4 8 11 10 18 13 11 11 10 9 9 8 9 11 12 9 8 9 10 10 11 15 17 15 17 11 8 8 9 10 9 9 9 9 9 9 9 10 10 10 10 10 10 9 10
1 1 3 1 -0 -0 0 1 4 5 8 9 11 13 13 13 15 14 11 11 8 9 11 11 11 10 11 11 12 13 13 16 13 10 8 8 9 9 9 9 9 9 9 9 9 9 10 11 11 10 9 10 12 11
1 5 1 1 1 0 1 4 7 8 9 10 13 13 13 12 12 13 11 10 6 9 12 11 14 12 11 12 13 11 12 10 9 8 8 8 8 9 9 9 9 9 9 9 9 10 10 10 10 11 11 10 12 12
4 4 1 1 2 3 4 5 7 8 11 11 13 13 12 12 13 11 11 10 9 7 9 11 9 12 15 13 13 11 11 9 9 10 8 7 8 8 8 9 9 9 9 9 9 10 10 10 11 13 12 12 10 14
2 3 2 1 2 5 7 7 7 11 10 11 10 10 11 11 9 9 9 9 8 6 7 9 11 12 14 10 13 11 10 9 9 9 8 8 8 8 9 9 9 12 12 10 10 10 10 10 12 12 11 12 12 13
1 1 2 2 2 6 7 7 6 9 11 10 9 10 10 10 9 8 9 7 6 7 9 11 12 12 9 9 10 12 9 8 9 12 11 11 9 9 10 9 11 12 10 11 11 10 10 11 11 13 12 13 13 12
2 3 1 2 4 5 6 7 9 9 9 10 9 8 10 10 10 8 7 8 10 11 12 11 10 9 9 11 9 8 8 10 10 10 11 12 10 11 12 9 9 9 10 12 14 14 13 14 13 11 17 16 15 14
5 1 4 3 6 6 7 6 7 8 9 10 10 9 12 11 9 9 7 8 10 11 11 10 10 9 9 9 9 9 10 8 9 10 11 11 9 10 10 9 9 12 13 13 12 13 12 12 13 15 17 15 13 14
3 4 4 5 8 8 8 5 7 8 11 11 9 10 12 12 9 6 10 8 9 9 11 10 8 8 9 8 8 9 8 9 12 13 12 12 9 8 8 8 9 11 12 11 10 11 12 12 12 13 13 15 14 15
3 7 9 9 9 14 7 8 7 8 9 10 10 11 10 10 8 9 11 13 9 8 8 9 8 9 8 9 10 11 11 11 12 12 12 8 11 12 10 8 7 8 9 9 9 10 11 13 13 13 13 13 13 14
9 9 10 13 10 9 12 13 10 9 12 9 10 11 12 8 10 10 11 12 11 10 10 9 9 9 11 12 12 12 11 11 13 12 11 8 12 10 10 11 8 8 8 10 11 12 12 10 12 15 14 13 13 13
16 14 11 12 12 11 10 14 16 12 11 12 10 10 8 10 12 16 15 14 14 13 12 12 12 12 12 12 14 14 14 12 12 13 13 11 9 9 10 11 12 11 11 11 13 12 12 12 10 12 14 12 14 14
19 19 12 9 10 9 13 10 8 9 12 13 13 13 13 16 17 16 13 13 13 12 11 12 12 12 13 13 12 12 12 12 12 10 9 9 9 9 9 10 13 11 12 13 16 16 13 12 11 10 12 13 13 13
16 13 21 19 18 12 18 14 14 16 14 12 13 15 16 17 18 15 14 13 12 11 11 12 11 12 13 13 13 13 14 14 13 12 12 10 10 11 11 10 11 11 11 11 12 16 15 14 12 10 11 12 12 13
20 17 17 23 23 19 15 14 14 12 12 14 17 16 16 15 14 14 14 13 13 14 15 15 15 15 15 15 16 15 15 18 17 21 22 23 22 18 14 13 14 13 12 11 10 11 11 12 13 13 11 10 11 14
22 16 19 23 24 18 17 15 17 16 13 12 12 12 14 16 15 13 14 14 15 17 19 19 18 17 19 20 20 19 18 18 22 22 24 24 21 18 17 18 17 16 14 12 12 12 12 11 11 13 12 11 11 12
15 17 21 17 19 20 19 21 21 19 22 19 21 16 17 16 15 16 17 19 18 18 18 18 19 21 19 19 18 19 19 20 17 20 21 22 24 24 22 20 19 17 15 15 16 15 17 16 13 10 10 12 13 14
24 23 22 22 22 18 22 24 26 26 26 22 16 14 14 16 18 18 18 20 20 22 21 22 21 19 20 21 19 18 16 16 14 20 21 23 24 24 23 21 20 20 18 17 20 19 20 18 14 15 15 15 16 17
26 25 20 23 24 23 23 24 24 24 25 19 19 16 16 17 20 18 16 20 22 23 23 21 21 22 21 20 19 18 19 13 15 15 17 19 22 22 25 23 22 21 19 22 22 20 20 18 17 17 18 18 19 19